STARLINK-11142, 59957

Orbit data source: Space-Track

STARLINK-11142, 59957 is a payload satellite owned by SpaceX/Seattle (US) in LEO that was launched on Wed, 05 Jun 2024 UTC via an FALCON 9 launch vehicle from the Air Force Eastern Test Range (AFETR). Payload-class satellites include a variety of spacecraft equipped with specific instruments for various scientific and technological missions. These include communications satellites like Starlink; space stations such as the ISS; scientific satellites like the Hubble; Earth observation satellites from companies like Planet Labs, Umbra, and HawkEye 360; GPS; miniature CubeSats for education and research; and military/defense satellites.

Loading next visibility...
Identifier
59957, 2024-107N
Orbit
LEO
Last TLE update
7 hours ago
Origin
Manufacturer
SpaceX/Seattle
Mission
Operational spacecraft
Bus & Motor
STARLINK V2M, Unknown motor
Mass
730 kg wet, ~700 kg dry
Launch date (UTC)
2024-06-05 (1 year ago)
Launch vehicle
FALCON 9
Launch site
Air Force Eastern Test Range (AFETR)
Object type
Payload
Rocket body
Debris
Shape & HBR
Unknown
Radar Cross Section
Large (>1 m²)

Expand to show TLE details & history

TLE from 7 hours ago
0 STARLINK-11142
1 59957U 24107N   25181.83574382  .00000266  00000-0  70500-5 0  9997
2 59957  53.1595  52.5039 0000739  92.1071 268.0031 15.69707811 62607
Epoch: 2025-06-30T20:03Z
TLE epoch observation values (Epoch: 2025-06-30T20:03:28.266Z)
Latitude
-0.00004°
Longitude
-167.50375°
Altitude
360.665 km
Speed
7.694 km/s
True Right ascension
03h 30m 00s
True Declination
0° 00' 00"
Sunlit
Object was in daylight at epoch
Visualization orbit readout
Latitude
14.98902°
Longitude
-0.40581°
Altitude
359.742 km
Speed
7.696 km/s
Apparent Right ascension
15h 08m 29s
Apparent Declination
-55° 07' 37"
Sunlit
Object is in full shadow
Visualization observer readout
Local Sidereal Time
14:28:25
Azimuth
174.267° S
Elevation
-5.428°
Doppler factor
1
Orbital elements
Apogee altitude
360.492 km
Perigee altitude
359.496 km
Semi-major axis
6,738.131 km
Eccentricity
0.00007
Inclination
53.1595°
RAAN
52.5039°
Arg. of periapsis
92.1071°
True anomaly
Unknown
Mean anomaly
268.0031°
Eccentric anomaly
Unknown
Mean motion
3.92405 °/min
Orbital period
91.74 mins
BSTAR
0.00000705
Loading maneuver chart data...
Loading SW <> Apogee altitude chart data...
Loading historical data...
Loading historical data...
Loading historical data...
Loading historical data...
Loading historical data...
Loading historical data...
Loading historical data...

STARLINK-11142 Visibility forecast

Observer location: undefined°, undefined°

Span
Click to sort rows by Start time (UTC) header in descending order
Start Az.
Max El. time (UTC)
Max El. Az.
Max El.
End time (UTC)
End Az.
5 mins2025-07-01 17:37:13.220Z203.434° SW2025-07-01 17:39:13.220Z156.016° SSE31.632°2025-07-01 17:42:13.220Z64.469° ENE
|